Regional Weather Roundup
Issued by NWS

Home | Current Version | Previous Version | Graphics & Text | Print | Product List | Glossary On
Versions: 1 2 3 4 5 6 7 8 9 10 11 12 13 14 15 16 17 18 19 20 21 22 23 24 25 26 27 28 29 30 31 32 33 34 35 36 37 38 39 40 41 42 43 44 45 46 47 48 49 50
057
ASUS45 KPSR 230010
RWRAZ

ARIZONA HOURLY REGIONAL WEATHER ROUNDUP
NATIONAL WEATHER SERVICE PHOENIX AZ
500 PM MST TUE MAY 22 2018

NOTE: FAIR INDICATES FEW OR NO CLOUDS BELOW 12,000 FEET WITH NO
SIGNIFICANT WEATHER AND/OR OBSTRUCTIONS TO VISIBILITY.

AZZ001>003-036-230100-
NORTHWEST ARIZONA

CITY           SKY/WX    TMP DP  RH WIND       PRES   REMARKS
BULLHEAD CITY  MOSUNNY   93  30  10 SW13      29.68F
KINGMAN          N/A    N/A N/A N/A MISG      29.83F
$$

AZZ004>008-015-016-018-230100-
NORTH CENTRAL ARIZONA

CITY           SKY/WX    TMP DP  RH WIND       PRES   REMARKS
GRAND CANYON   PTSUNNY   64  28  25 W9G15     30.00S
6HR MIN TEMP:  62; 6HR MAX TEMP:  70;

WILLIAMS       SUNNY     68  16  13 S17       29.99S
PRESCOTT       SUNNY     74  22  14 SW18      29.93R
6HR MIN TEMP:  70; 6HR MAX TEMP:  75;

FLAGSTAFF      SUNNY     65  22  19 SW17G26   30.03R
6HR MIN TEMP:  60; 6HR MAX TEMP:  67;

PAYSON         SUNNY     73  18  12 S14G24    29.95S
PAGE           CLOUDY    77  27  15 SE15G22   29.85R
6HR MIN TEMP:  76; 6HR MAX TEMP:  82; 6HR PCP: TRACE;

$$

AZZ009>014-017-230100-
NORTHEAST ARIZONA

CITY           SKY/WX    TMP DP  RH WIND       PRES   REMARKS
WINSLOW        SUNNY     80  19  10 S21G28    29.89S
6HR MIN TEMP:  76; 6HR MAX TEMP:  83;

SAINT JOHNS    SUNNY     79  15   9 W20G31    29.90R
6HR MIN TEMP:  76; 6HR MAX TEMP:  83;

WINDOW ROCK    MOSUNNY   75  16  10 SW17G29   29.96S
6HR MIN TEMP:  69; 6HR MAX TEMP:  79;

SHOW LOW       SUNNY     72  16  12 SW18G28   29.99S
$$

AZZ540-542>544-546-548-230100-
GREATER PHOENIX AREA

CITY           SKY/WX    TMP DP  RH WIND       PRES   REMARKS
PHOENIX        SUNNY     92  21   7 S15       29.70F
6HR MIN TEMP:  85; 6HR MAX TEMP:  95;

BUCKEYE        SUNNY     88  37  16 SW13      29.74S
GLENDALE       SUNNY     91  28  10 SW13G21   29.73F
LUKE AFB       SUNNY     90  30  12 SW15      29.71F
6HR MIN TEMP:  84; 6HR MAX TEMP:  91;

DEER VALLEY    SUNNY     89  24   9 W14G20    29.73S
6HR MIN TEMP:  82; 6HR MAX TEMP:  91;

SCOTTSDALE     SUNNY     91  26   9 S9        29.74F
6HR MIN TEMP:  82; 6HR MAX TEMP:  92;

MESA-FALCON    SUNNY     91  27   9 W14G23    29.74
MESA-GATEWAY   SUNNY     91  23   8 W18G32    29.75S
CHANDLER       SUNNY     91  18   6 SW20      29.72F
$$

AZZ539-553-230100-
SOUTHWEST MARICOPA COUNTY AND PINAL COUNTY

CITY           SKY/WX    TMP DP  RH WIND       PRES   REMARKS
CASA GRANDE    SUNNY     90  23   9 SW18      29.74S
6HR MIN TEMP:  84; 6HR MAX TEMP:  91;

GILA BEND      SUNNY     90  29  11 SW12G22   29.72S
6HR MIN TEMP:  83; 6HR MAX TEMP:  92;

$$

AZZ503-504-507>509-230100-
SOUTHEAST ARIZONA

CITY           SKY/WX    TMP DP  RH WIND       PRES   REMARKS
TUCSON         SUNNY     89  25  10 SW18G24   29.81S
6HR MIN TEMP:  83; 6HR MAX TEMP:  91;

DAVIS-MONTHAN  SUNNY     90  26  10 SW15G24   29.79S
6HR MIN TEMP:  85; 6HR MAX TEMP:  92;

RYAN FIELD     SUNNY     90  30  12 SW16G30   29.80S
NOGALES        SUNNY     83  27  13 SW15G26   29.89S
6HR MIN TEMP:  80; 6HR MAX TEMP:  86;

SIERRA VISTA   SUNNY     82  22  11 SW15G24   29.94
6HR MIN TEMP:  78; 6HR MAX TEMP:  84;

DOUGLAS        SUNNY     85  17   8 SW17G25   29.89F
6HR MIN TEMP:  80; 6HR MAX TEMP:  86;

SAFFORD        SUNNY     90  15   6 SW9G24    29.77F
6HR MIN TEMP:  84; 6HR MAX TEMP:  93;

$$

AZZ532-230100-
SOUTHWEST ARIZONA

CITY           SKY/WX    TMP DP  RH WIND       PRES   REMARKS
YUMA           SUNNY     87  34  15 CALM      29.71F
6HR MIN TEMP:  79; 6HR MAX TEMP:  88;

$$

CAZ041-043-047-048-061-525>527-560>570-230100-
SOUTHERN CALIFORNIA

CITY           SKY/WX    TMP DP  RH WIND       PRES   REMARKS
DOWNTOWN L.A.  MOSUNNY   67  53  61 MISG      29.88F
6HR MIN TEMP:  64; 6HR MAX TEMP:  68;

L.A. AIRPORT   MOSUNNY   65  54  67 W15       29.90S
6HR MIN TEMP:  63; 6HR MAX TEMP:  67;

SAN DIEGO      MOSUNNY   64  50  60 SW8       29.92F
6HR MIN TEMP:  63; 6HR MAX TEMP:  66;

BURBANK        SUNNY     66  53  63 SE7       29.87F
6HR MIN TEMP:  60; 6HR MAX TEMP:  68;

ONTARIO        PTSUNNY   68  50  52 SW10      29.87F
6HR MIN TEMP:  63; 6HR MAX TEMP:  70;

RIVERSIDE      SUNNY     69  50  50 W10       29.87S
6HR MIN TEMP:  62; 6HR MAX TEMP:  71;

PALM SPRINGS   SUNNY     86  49  27 NW16      29.74F
6HR MIN TEMP:  79; 6HR MAX TEMP:  87;

EL CENTRO NAS  MOSUNNY   89  23   9 SE9       29.71F
6HR MIN TEMP:  79; 6HR MAX TEMP:  89;

IMPERIAL       SUNNY     89  23   9 VRB3      29.69F
6HR MIN TEMP:  79; 6HR MAX TEMP:  90;

BLYTHE         SUNNY     91  34  13 SW12G22   29.69F
6HR MIN TEMP:  82; 6HR MAX TEMP:  92;

NEEDLES        SUNNY     93  32  11 S12G20    29.70S
6HR MIN TEMP:  86; 6HR MAX TEMP:  95;

$$

NVZ020-UTZ003-230100-
SOUTHERN NEVADA-UTAH

CITY           SKY/WX    TMP DP  RH WIND       PRES   REMARKS
LAS VEGAS      PTSUNNY   85  33  15 E6        29.74S
6HR MIN TEMP:  80; 6HR MAX TEMP:  87;

SALT LAKE CITY PTSUNNY   69  44  40 N16       29.90F
6HR MIN TEMP:  62; 6HR MAX TEMP:  72; 6HR PCP: TRACE;

$$

NMZ009-TXZ055-230100-
NEW MEXICO-WEST TEXAS

CITY           SKY/WX    TMP DP  RH WIND       PRES   REMARKS
ALBUQUERQUE    MOSUNNY   82  23  11 S20G31    29.91F
6HR MIN TEMP:  74; 6HR MAX TEMP:  83;

EL PASO        MOSUNNY   91  40  16 S10       29.82F
6HR MIN TEMP:  80; 6HR MAX TEMP:  93;

$$


........................KEY........................
SKY/WX - SKY CONDITION/WEATHER
TMP    - TEMPERATURE IN FAHRENHEIT
DP     - DEW POINT IN FAHRENHEIT
RH     - RELATIVE HUMIDITY IN PERCENT
WIND   - DIRECTION AND SPEED IN MILES PER HOUR (MPH)
VRB    - VARIABLE WIND DIRECTION
PRES   - MEAN SEA LEVEL PRESSURE IN INCHES OF MERCURY
         F - FALLING PRESSURE   R - RISING PRESSURE
         S - STEADY PRESSURE
VSB    - VISIBILITY IN MILES
HX     - HEAT INDEX IN FAHRENHEIT
WCI    - WIND CHILL INDEX IN FAHRENHEIT
TC     - TEMPERATURE IN CELSIUS WHICH IS ALSO KNOWN AS
         TEMPERATURE IN CENTIGRADE
AFB    - AIR FORCE BASE
         LUKE AFB IS LUKE AIR FORCE BASE
         DAVIS-MONTHAN IS DAVIS-MONTHAN AIR FORCE BASE
NAS    - NAVAL AIR STATION
         EL CENTRO NAS IS EL CENTRO NAVAL AIR STATION
N/A    - NOT AVAILABLE





USA.gov is the U.S. government's official web portal to all federal, state and local government web resources and services.